Weather History for Corvallis, OR

Change the Weather History Date:

Saturday, December 7, 2013

  Actual Average Record
Temperature  
Mean Temperature 15 °F -  
Max Temperature 24 °F 47 °F 51 °F (1996)
Min Temperature 6 °F 36 °F 6 °F (2013)
Degree Days  
Heating Degree Days 50    
Moisture  
Dew Point 8 °F    
Average Humidity 65    
Maximum Humidity 92    
Minimum Humidity 44    
Precipitation  
Precipitation 0.00 in - - ()
Sea Level Pressure  
Sea Level Pressure 30.26 in    
Wind  
Wind Speed 7 mph (NNW)    
Max Wind Speed 13 mph    
Max Gust Speed 16 mph    
Visibility 9 miles    
Events      
Averages and records for this station are not official NWS values.
T = Trace of Precipitation, MM = Missing Value Source: NWS Daily Summary

Daily Weather History Graph

Daily Weather History Graph

Search for Another Location

Airport:

Trip Planner

Search our weather history database for the weather conditions in past years. The results will help you decide how hot, cold, wet, or windy it might be!

Date:

Astronomy

Dec. 07, 2013 Rise Set
Actual Time 7:36 AM PST 4:33 PM PST
Civil Twilight 7:03 AM PST 5:06 PM PST
Nautical Twilight 6:26 AM PST 5:43 PM PST
Astronomical Twilight 5:51 AM PST 6:18 PM PST
Moon 11:16 AM PST (12/7) 10:31 PM PST (12/7)
Length of Visible Light 10h 03m
Length of Day
8h 57m
Waxing Crescent, 30% of the Moon is Illuminated
Dec 7
Waxing Crescent
Dec 9
First Quarter
Dec 17
Full
Dec 25
Last Quarter
Jan 1
New

Hourly Weather History & Observations

Time (PST) Temp. Windchill Dew Point Humidity Pressure Visibility Wind Dir Wind Speed Gust Speed Precip Events Conditions
12:15 AM 24.8 °F 16.1 °F 15.8 °F 69% 30.04 in 10.0 mi NNW 8.1 mph - N/A   Overcast
12:35 AM 24.8 °F 16.1 °F 15.8 °F 69% 30.04 in 10.0 mi NNW 8.1 mph - N/A   Overcast
12:55 AM 21.2 °F 12.6 °F 14.0 °F 74% 30.05 in 10.0 mi NNW 6.9 mph - N/A   Mostly Cloudy
1:15 AM 21.2 °F 10.9 °F 12.2 °F 68% 30.05 in 10.0 mi NNW 9.2 mph - N/A   Mostly Cloudy
1:35 AM 21.2 °F 12.6 °F 10.4 °F 63% 30.06 in 10.0 mi NNW 6.9 mph - N/A   Overcast
1:55 AM 21.2 °F 12.6 °F 10.4 °F 63% 30.06 in 10.0 mi NW 6.9 mph - N/A   Scattered Clouds
2:15 AM 21.2 °F 10.1 °F 10.4 °F 63% 30.07 in 10.0 mi NNW 10.4 mph - N/A   Mostly Cloudy
2:35 AM 21.2 °F 10.1 °F 10.4 °F 63% 30.08 in 10.0 mi North 10.4 mph - N/A   Mostly Cloudy
2:55 AM 21.2 °F 11.7 °F 10.4 °F 63% 30.08 in 10.0 mi North 8.1 mph - N/A   Mostly Cloudy
3:15 AM 19.4 °F 8.6 °F 10.4 °F 68% 30.09 in 10.0 mi North 9.2 mph - N/A   Scattered Clouds
3:35 AM 19.4 °F 9.5 °F 10.4 °F 68% 30.09 in 10.0 mi NNW 8.1 mph - N/A   Scattered Clouds
3:55 AM 19.4 °F 11.5 °F 12.2 °F 74% 30.11 in 10.0 mi NW 5.8 mph - N/A   Scattered Clouds
4:15 AM 17.6 °F 8.2 °F 10.4 °F 73% 30.11 in 10.0 mi NW 6.9 mph - N/A   Mostly Cloudy
4:35 AM 15.8 °F 5.1 °F 8.6 °F 73% 30.12 in 10.0 mi NW 8.1 mph - N/A   Mostly Cloudy
4:55 AM 17.6 °F 9.3 °F 10.4 °F 73% 30.13 in 10.0 mi North 5.8 mph - N/A   Partly Cloudy
5:15 AM 19.4 °F 10.4 °F 10.4 °F 68% 30.13 in 10.0 mi North 6.9 mph - N/A   Clear
5:35 AM 17.6 °F 9.3 °F 8.6 °F 68% 30.14 in 10.0 mi NW 5.8 mph - N/A   Clear
5:55 AM 14.0 °F 3.9 °F 10.4 °F 86% 30.15 in 10.0 mi NW 6.9 mph - N/A   Clear
6:15 AM 12.2 °F 0.7 °F 6.8 °F 79% 30.16 in 10.0 mi NW 8.1 mph - N/A   Clear
6:35 AM 12.2 °F 0.7 °F 8.6 °F 85% 30.17 in 10.0 mi WNW 8.1 mph - N/A   Clear
6:55 AM 14.0 °F 5.1 °F 8.6 °F 79% 30.19 in 10.0 mi NW 5.8 mph - N/A   Clear
7:15 AM 8.6 °F -1.3 °F -0.4 °F 67% 30.20 in 10.0 mi NW 5.8 mph - N/A   Clear
7:35 AM 10.4 °F 2.2 °F 3.2 °F 73% 30.21 in 10.0 mi NNW 4.6 mph - N/A   Clear
7:55 AM 6.8 °F -3.5 °F -2.2 °F 67% 30.22 in 10.0 mi West 5.8 mph - N/A   Clear
8:15 AM 8.6 °F -2.6 °F 3.2 °F 79% 30.23 in 10.0 mi WNW 6.9 mph - N/A   Clear
8:35 AM 10.4 °F -0.4 °F 6.8 °F 85% 30.25 in 10.0 mi NW 6.9 mph - N/A   Clear
8:55 AM 12.2 °F 1.7 °F 8.6 °F 85% 30.26 in 10.0 mi NW 6.9 mph - N/A   Clear
9:15 AM 15.8 °F 7.2 °F 8.6 °F 73% 30.27 in 10.0 mi WNW 5.8 mph - N/A   Clear
9:35 AM 15.8 °F 8.6 °F 10.4 °F 79% 30.28 in 10.0 mi NW 4.6 mph - N/A   Clear
9:55 AM 19.4 °F 11.5 °F 8.6 °F 63% 30.29 in 10.0 mi North 5.8 mph - N/A   Clear
10:15 AM 19.4 °F 7.9 °F 6.8 °F 58% 30.29 in 10.0 mi NNE 10.4 mph - N/A   Clear
10:35 AM 21.2 °F 11.7 °F 6.8 °F 54% 30.30 in 10.0 mi NNE 8.1 mph - N/A   Clear
10:55 AM 21.2 °F 12.6 °F 6.8 °F 54% 30.30 in 10.0 mi NNE 6.9 mph - N/A   Clear
11:15 AM 21.2 °F 10.9 °F 8.6 °F 58% 30.30 in 10.0 mi NNE 9.2 mph - N/A   Clear
11:35 AM 21.2 °F 9.5 °F 8.6 °F 58% 30.30 in 10.0 mi NNE 11.5 mph - N/A   Clear
11:55 AM 23.0 °F 11.1 °F 10.4 °F 59% 30.30 in 10.0 mi NNE 12.7 mph - N/A   Clear
12:15 PM 23.0 °F 11.1 °F 10.4 °F 59% 30.30 in 10.0 mi NNE 12.7 mph - N/A   Clear
12:35 PM 23.0 °F 12.4 °F 10.4 °F 59% 30.30 in 10.0 mi NNE 10.4 mph - N/A   Clear
12:55 PM 23.0 °F 12.4 °F 8.6 °F 54% 30.30 in 10.0 mi NNE 10.4 mph - N/A   Clear
1:15 PM 24.8 °F 14.6 °F 8.6 °F 50% 30.30 in 10.0 mi North 10.4 mph 16.1 mph N/A   Clear
1:35 PM 24.8 °F 13.4 °F 8.6 °F 50% 30.31 in 10.0 mi North 12.7 mph - N/A   Clear
1:55 PM 24.8 °F 14.6 °F 8.6 °F 50% 30.31 in 10.0 mi North 10.4 mph - N/A   Clear
2:15 PM 24.8 °F 14.0 °F 8.6 °F 50% 30.32 in 10.0 mi North 11.5 mph - N/A   Clear
2:35 PM 24.8 °F 15.3 °F 8.6 °F 50% 30.32 in 10.0 mi North 9.2 mph - N/A   Clear
2:55 PM 24.8 °F 15.3 °F 8.6 °F 50% 30.33 in 10.0 mi North 9.2 mph - N/A   Clear
3:15 PM 24.8 °F 15.3 °F 8.6 °F 50% 30.33 in 10.0 mi North 9.2 mph - N/A   Clear
3:35 PM 24.8 °F 16.1 °F 8.6 °F 50% 30.33 in 10.0 mi North 8.1 mph - N/A   Clear
3:55 PM 23.0 °F 14.7 °F 8.6 °F 54% 30.34 in 10.0 mi NNW 6.9 mph - N/A   Clear
4:15 PM 24.8 °F 19.1 °F 8.6 °F 50% 30.35 in 10.0 mi NNW 4.6 mph - N/A   Clear
4:35 PM 21.2 °F - 6.8 °F 54% 30.35 in 10.0 mi Calm Calm - N/A   Clear
4:55 PM 15.8 °F 7.2 °F 3.2 °F 58% 30.35 in 10.0 mi WNW 5.8 mph - N/A   Clear
5:15 PM 19.4 °F 11.5 °F 8.6 °F 63% 30.36 in 10.0 mi NNW 5.8 mph - N/A   Clear
5:35 PM - - - N/A% 30.36 in 10.0 mi West 4.6 mph - N/A   Clear
5:55 PM - - - N/A% 30.36 in 10.0 mi WNW 4.6 mph - N/A   Clear
6:15 PM 12.2 °F 6.1 °F 10.4 °F 92% 30.36 in 10.0 mi West 3.5 mph - N/A   Clear
6:35 PM - - - N/A% 30.35 in 10.0 mi NW 5.8 mph - N/A   Clear
6:55 PM 12.2 °F 6.1 °F 3.2 °F 67% 30.36 in 10.0 mi WNW 3.5 mph - N/A   Clear
7:15 PM 6.8 °F -2.0 °F -2.2 °F 67% 30.36 in 10.0 mi WNW 4.6 mph - N/A   Clear
7:35 PM 8.6 °F 0.1 °F -4.0 °F 57% 30.36 in 10.0 mi WNW 4.6 mph - N/A   Clear
7:55 PM 8.6 °F 0.1 °F -9.4 °F 44% 30.36 in 10.0 mi WNW 4.6 mph - N/A   Clear
8:15 PM - - - N/A% 30.36 in 10.0 mi WNW 3.5 mph - N/A   Clear
8:35 PM - - - N/A% 30.36 in 3.0 mi Calm Calm - N/A   Clear
8:55 PM - - - N/A% 30.37 in 7.0 mi Calm Calm - N/A   Clear
9:15 PM - - - N/A% 30.38 in 1.8 mi NW 3.5 mph - N/A   Clear
9:35 PM - - - N/A% 30.39 in 10.0 mi WNW 3.5 mph - N/A   Clear
9:55 PM - - - N/A% 30.39 in 10.0 mi Calm Calm - N/A   Clear
10:15 PM - - - N/A% 30.39 in 3.0 mi West 3.5 mph - N/A   Clear
10:35 PM - - - N/A% 30.40 in 0.5 mi Calm Calm - N/A   Scattered Clouds
10:55 PM - - - N/A% 30.41 in 0.5 mi Calm Calm - N/A   Unknown
11:15 PM - - - N/A% 30.42 in 8.0 mi Calm Calm - N/A   Clear
11:35 PM - - - N/A% 30.42 in 1.5 mi Calm Calm - N/A   Clear
11:55 PM - - - N/A% 30.42 in 0.2 mi Calm Calm - N/A   Mostly Cloudy